Des Moines, IA

3:31 PM CDT on April 29, 2017 (GMT -0500)
Des Moines International

Weather History for KDSM - January, 2013

Change the Weather History Date:

Friday, January 18, 2013

  Actual Average Record
Temperature  
Mean Temperature 41 °F 22 °F  
Max Temperature 56 °F 31 °F 63 °F (1880)
Min Temperature 25 °F 14 °F -21 °F (1887)
Degree Days  
Heating Degree Days 24 43  
Month to date heating degree days 652 767  
Since 1 July heating degree days 2803 3234  
Cooling Degree Days 0 0  
Month to date cooling degree days 0 0  
Year to date cooling degree days 0 0  
Moisture  
Dew Point 28 °F    
Average Humidity 58    
Maximum Humidity 78    
Minimum Humidity 38    
Precipitation  
Precipitation 0.00 in 0.03 in 0.49 in (1931)
Month to date precipitation 0.12 0.57  
Year to date precipitation 0.12 0.57  
Snow  
Snow 0.00 in 0.30 in 6.80 in (1931)
Month to date snowfall 0.1 4.8  
Since 1 July snowfall 15.6 16.7  
Snow Depth 0.00 in    
Sea Level Pressure  
Sea Level Pressure 30.04 in    
Wind  
Wind Speed 17 mph (SW)    
Max Wind Speed 35 mph    
Max Gust Speed 44 mph    
Visibility 10 miles    
Events      
T = Trace of Precipitation, MM = Missing Value Source: NWS Daily Summary

Daily Weather History Graph

Daily Weather History Graph

Search for Another Location

Airport or City:

Trip Planner

Search our weather history database for the weather conditions in past years. The results will help you decide how hot, cold, wet, or windy it might be!

Date:

Astronomy

Jan. 18, 2013 Rise Set
Actual Time 7:37 AM CST 5:13 PM CST
Civil Twilight 7:06 AM CST 5:43 PM CST
Nautical Twilight 6:32 AM CST 6:17 PM CST
Astronomical Twilight 5:59 AM CST 6:51 PM CST
Moon 11:09 AM CST (1/18) 12:10 AM CST (1/18)
Length of Visible Light 10h 37m
Length of Day
9h 36m
Waxing Crescent, 47% of the Moon is Illuminated
Jan 18
Waxing Crescent
Jan 18
First Quarter
Jan 26
Full
Feb 3
Last Quarter
Feb 10
New

Hourly Weather History & Observations

Time (CST) Temp. Windchill Dew Point Humidity Pressure Visibility Wind Dir Wind Speed Gust Speed Precip Events Conditions
12:54 AM 26.1 °F 16.8 °F 19.9 °F 78% 30.35 in 10.0 mi SSE 9.2 mph - N/A   Partly Cloudy
1:54 AM 28.0 °F 19.3 °F 21.9 °F 78% 30.33 in 10.0 mi South 9.2 mph - N/A   Partly Cloudy
2:54 AM 30.0 °F 20.0 °F 23.0 °F 75% 30.30 in 10.0 mi South 12.7 mph - N/A   Clear
3:54 AM 30.9 °F 21.7 °F 23.0 °F 72% 30.27 in 10.0 mi South 11.5 mph - N/A   Partly Cloudy
4:54 AM 32.0 °F 21.2 °F 25.0 °F 75% 30.22 in 10.0 mi South 16.1 mph - N/A   Partly Cloudy
5:54 AM 33.1 °F 22.6 °F 25.0 °F 72% 30.18 in 10.0 mi South 16.1 mph - N/A   Partly Cloudy
6:54 AM 32.0 °F 23.0 °F 26.1 °F 79% 30.17 in 10.0 mi South 11.5 mph - N/A   Scattered Clouds
7:54 AM 34.0 °F 23.8 °F 27.0 °F 75% 30.13 in 10.0 mi South 16.1 mph - N/A   Mostly Cloudy
8:54 AM 37.0 °F 29.3 °F 28.0 °F 70% 30.12 in 10.0 mi SSW 11.5 mph - N/A   Mostly Cloudy
9:54 AM 42.1 °F 32.8 °F 28.9 °F 60% 30.09 in 10.0 mi SSW 21.9 mph 29.9 mph N/A   Mostly Cloudy
10:54 AM 48.0 °F - 28.0 °F 46% 30.03 in 10.0 mi SW 29.9 mph 41.4 mph N/A   Partly Cloudy
11:54 AM 51.1 °F - 30.0 °F 44% 29.98 in 10.0 mi SW 31.1 mph 40.3 mph N/A   Partly Cloudy
12:54 PM 54.0 °F - 30.0 °F 40% 29.93 in 10.0 mi WSW 27.6 mph 40.3 mph N/A   Partly Cloudy
1:54 PM 55.0 °F - 30.9 °F 40% 29.91 in 10.0 mi WSW 29.9 mph 38.0 mph N/A   Partly Cloudy
2:54 PM 55.9 °F - 30.9 °F 39% 29.91 in 10.0 mi WSW 24.2 mph 32.2 mph N/A   Partly Cloudy
3:54 PM 55.9 °F - 30.0 °F 37% 29.90 in 10.0 mi WSW 25.3 mph 33.4 mph N/A   Partly Cloudy
4:54 PM 52.0 °F - 30.9 °F 45% 29.91 in 10.0 mi SW 17.3 mph - N/A   Scattered Clouds
5:54 PM 48.9 °F - 30.0 °F 48% 29.94 in 10.0 mi West 9.2 mph - N/A   Partly Cloudy
6:54 PM 45.0 °F 40.1 °F 30.0 °F 56% 29.94 in 10.0 mi SW 9.2 mph - N/A   Partly Cloudy
7:54 PM 43.0 °F 36.8 °F 30.0 °F 60% 29.94 in 10.0 mi WSW 11.5 mph - N/A   Partly Cloudy
8:54 PM 43.0 °F 36.8 °F 30.0 °F 60% 29.93 in 10.0 mi WSW 11.5 mph - N/A   Partly Cloudy
9:54 PM 44.1 °F 37.1 °F 30.0 °F 58% 29.93 in 10.0 mi SW 15.0 mph - N/A   Clear
10:54 PM 41.0 °F 34.3 °F 28.9 °F 62% 29.91 in 10.0 mi SW 11.5 mph - N/A   Partly Cloudy
11:54 PM 39.9 °F 32.9 °F 30.0 °F 68% 29.90 in 10.0 mi SSW 11.5 mph - N/A   Clear